CYGV

Havre St Pierre Airport

ICAO Code CYGV
IATA Code YGV
Name Havre St Pierre Airport
Location Havre St-Pierre, Quebec, CA
Elevation 125 Feet / 38.1 Meters
Latitude 50.28194444
Longitude -63.61111111
METAR CYGV 012200Z AUTO 27012G18KT 9SM BKN091 15/12 A2972 RMK SLP067 DENSITY ALT 400FT
Extra information Display Charts and CFS
Display NOTAMS
Runway Length Width Surface Elevation
08 4498 ft 100 ft ASP 110 ft
26 4498 ft 100 ft ASP 125 ft